Location: Crescent
(42.8242°N, 73.7329°W)
Time: 07:05:37
(UTC+00:00)

Explorer 7 - Pass Details

Date: 19 February 2026
Orbit: 430 x 541 km, 50.2° (Epoch: 9 March)

Event Time Altitude Azimuth Distance (km) Brightness Sun altitude
Rises 19:05:06 0° 228° (SW) 2,399 11.2 29.9°
Reaches altitude 10° 19:07:12 10° 224° (SW) 1,544 10.7 29.7°
Maximum altitude 19:10:37 58° 145° (SE) 523 7.3 29.3°
Drops below altitude 10° 19:14:09 10° 65° (ENE) 1,601 8.8 29.0°
Sets 19:16:22 0° 62° (ENE) 2,499 9.7 28.7°
